Home   Weather   Chinle   Past weeks

Flag for USA Past Weather in Chinle, Arizona, USA — Yesterday and Last 2 Weeks

Now
43 °F

Light rain. Fog.


Feels Like: 39 °F
Forecast: 42 / 57 °F
Wind: 7 mph from Southwest

Location: Window Rock Airport

Current Time: Apr 25, 2017 at 6:34:07 am

Latest Report: Apr 25, 2017 at 5:53 am


Visibility: 5 mi

Pressure: 29.49 "Hg (24.01 "Hg at 1678m altitude)

Humidity: 86%

Dew Point: 39 °F

Location of ChinleLocation

Past Weather in Chinle — Graph

°F

Chinle Temperature Yesterday

Maximum temperature yesterday: 72 °F (at 2:53 pm)
Minimum temperature yesterday: 40 °F (at 5:53 am)
Average temperature yesterday: 58 °F

High & Low Weather Summary for the Past Weeks

 TemperatureHumidityPressure
High75 °F (Apr 18, 4:53 pm)68% (Apr 25, 4:53 am)30.14 "Hg (Apr 25, 4:53 am)
Low22 °F (Apr 11, 6:53 am)8% (Apr 13, 4:53 pm)29.43 "Hg (Apr 25, 2:53 am)
Average54 °F28%29.87 "Hg
* Reported Apr 10 2:53 pm — Apr 25 4:53 am, Chinle, Weather by CustomWeather, © 2017

Note: Actual official high and low records may vary slightly from our data, if they occured in-between our weather recording intervals... More about our weather records

Advertising

Chinle Weather History for the Previous 24 Hours

Scroll right to see more
 ConditionsComfort  
Time TempWeatherWind HumidityBarometerVisibility
4:53 am
Tue, Apr 25
46 °FLight rain. Mostly cloudy.13 mph68%29.47 "Hg10 mi
3:53 am51 °FOvercast.16 mph44%29.45 "Hg10 mi
2:53 am53 °FOvercast.13 mph24%29.43 "Hg10 mi
1:53 am54 °FPassing clouds.12 mph23%29.45 "Hg10 mi
12:53 am54 °FClear.15 mph23%29.47 "Hg10 mi
11:53 pm
Mon, Apr 24
54 °FOvercast.7 mph24%29.49 "Hg10 mi
10:53 pm56 °FOvercast.3 mph24%29.51 "Hg10 mi
9:53 pm58 °FClear.15 mph21%29.49 "Hg10 mi
8:53 pm60 °FPassing clouds.18 mph19%29.48 "Hg10 mi
7:53 pm62 °FSunny.25 mph17%29.49 "Hg10 mi
6:53 pm64 °FSunny.30 mph16%29.50 "Hg10 mi
5:53 pm68 °FSunny.29 mph15%29.53 "Hg10 mi
4:53 pm69 °FSunny.32 mph14%29.51 "Hg10 mi
3:53 pm69 °FSunny.29 mph14%29.51 "Hg10 mi
2:53 pm72 °FSunny.30 mph12%29.53 "Hg10 mi
1:53 pm70 °FSunny.24 mph12%29.57 "Hg7 mi
12:53 pm69 °FSunny.29 mph14%29.57 "Hg9 mi
11:53 am67 °FSunny.31 mph17%29.63 "Hg9 mi
10:53 am64 °FSunny.24 mph17%29.66 "Hg10 mi
9:53 am63 °FSunny.21 mph23%29.65 "Hg10 mi
8:53 am60 °FSunny.15 mph27%29.65 "Hg10 mi
7:53 am52 °FSunny.5 mph30%29.67 "Hg10 mi
6:53 am48 °FSunny.8 mph32%29.64 "Hg10 mi
Weather by CustomWeather, © 2017

See weather overviewHow to use our weather pages